CDT,Max TemperatureF,Mean TemperatureF,Min TemperatureF,Max Dew PointF,MeanDew PointF,Min DewpointF,Max Humidity, Mean Humidity, Min Humidity, Max Sea Level PressureIn, Mean Sea Level PressureIn, Min Sea Level PressureIn, Max VisibilityMiles, Mean VisibilityMiles, Min VisibilityMiles, Max Wind SpeedMPH, Mean Wind SpeedMPH, Max Gust SpeedMPH,PrecipitationIn, CloudCover, Events, WindDirDegrees
2012-6-1,65,57,48,47,45,39,89,67,38,29.89,29.84,29.81,10,10,4,22,13,28,0.00,5,,319
2012-6-2,70,61,52,56,51,45,84,68,53,29.82,29.79,29.78,10,10,10,18,9,22,0.00,2,,250
2012-6-3,80,66,53,60,53,47,92,64,33,29.90,29.85,29.82,10,10,5,15,7,22,0.02,2,Rain,278
2012-6-4,80,70,61,61,55,46,93,64,34,29.94,29.88,29.81,10,10,7,13,5,17,0.04,3,Rain-Thunderstorm,87
2012-6-5,76,66,57,54,49,43,72,54,39,30.03,29.98,29.93,10,10,10,17,7,23,0.00,2,,60
2012-6-6,77,64,51,52,47,43,84,55,32,30.10,30.07,30.03,10,10,10,10,6,,0.00,1,,78
2012-6-7,81,66,52,50,47,43,81,50,26,30.16,30.11,30.06,10,10,10,9,3,,0.00,0,,332
2012-6-8,85,70,57,58,52,48,83,49,29,30.10,30.03,29.93,10,10,10,10,5,18,0.00,0,,227
2012-6-9,88,76,63,57,53,49,67,46,28,29.97,29.91,29.85,10,10,10,16,9,22,0.00,0,,205
2012-6-10,88,77,66,60,57,53,72,48,31,29.96,29.90,29.85,10,10,10,26,12,32,0.00,0,,176
2012-6-11,87,78,68,68,63,55,84,63,40,29.92,29.85,29.81,10,10,10,18,10,22,0.00,1,Rain,218
2012-6-12,75,64,54,55,49,43,83,54,38,30.14,30.05,29.92,10,10,10,17,10,29,0.00,0,,316
2012-6-13,75,62,50,50,44,40,83,52,29,30.20,30.14,30.07,10,10,10,14,5,16,0.00,0,,94
2012-6-14,86,70,53,54,51,46,82,49,31,30.11,30.06,29.97,10,10,10,18,9,22,0.00,0,,142
2012-6-15,91,78,64,57,53,49,61,43,27,30.08,30.03,29.98,10,10,10,17,10,22,0.00,0,,159
2012-6-16,91,78,67,69,62,54,93,60,41,30.03,29.97,29.88,10,10,1,28,11,47,0.66,2,Rain-Thunderstorm,197
2012-6-17,84,76,67,67,63,56,94,70,37,29.94,29.88,29.79,10,9,2,13,7,18,0.32,3,Rain,225
2012-6-18,89,80,71,69,67,65,84,64,45,29.83,29.74,29.68,10,10,10,29,14,37,0.00,0,,199
2012-6-19,90,80,71,70,67,64,80,62,48,29.96,29.91,29.84,10,10,10,23,12,30,0.00,0,,193
2012-6-20,90,82,73,68,64,61,66,56,46,30.02,29.95,29.87,10,10,7,22,14,30,0.00,0,,197
2012-6-21,83,73,63,67,62,55,85,64,39,30.00,29.95,29.89,10,10,10,15,10,20,0.00,3,,280
2012-6-22,82,70,58,59,55,52,86,58,35,30.05,30.01,29.97,10,10,10,9,5,16,0.00,1,,307
2012-6-23,82,70,59,63,58,52,87,60,37,30.05,30.02,29.98,10,10,10,7,2,,0.00,2,,201
2012-6-24,86,76,68,72,64,60,81,66,46,30.01,29.97,29.92,10,10,1,13,4,17,0.15,3,Rain-Thunderstorm,229
2012-6-25,77,68,57,63,49,39,73,47,31,30.09,30.05,29.96,10,10,10,16,12,22,0.00,2,,53
2012-6-26,81,66,50,54,49,43,83,54,31,30.09,30.02,29.93,10,10,10,10,7,,0.00,0,,119
2012-6-27,89,74,59,62,55,49,70,50,32,29.98,29.88,29.79,10,10,10,22,11,29,0.00,0,,182
2012-6-28,96,82,68,79,70,59,85,63,49,29.87,29.83,29.80,10,10,7,17,8,23,0.00,1,,241
2012-6-29,91,79,68,78,66,59,88,66,41,29.97,29.87,29.80,10,10,2,18,6,39,0.47,2,Rain-Thunderstorm,15
2012-6-30,85,76,66,72,68,65,95,79,56,29.90,29.85,29.81,10,8,0,12,5,,0.06,1,Fog-Rain-Thunderstorm,202